Location: Braden Valley Church
(38.0012°N, 88.6106°W)
Time: 05:02:48
(UTC+00:00)

CZ-2C R/B - Visible Passes

Search period start: 07 July 2022 00:00
Search period end: 17 July 2022 00:00
Orbit: 785 x 869 km, 98.2° (Epoch: 06 July)

Date Brightness Start Highest point End Pass type
(mag) Time Alt. Az. Time Alt. Az. Time Alt. Az.
07 Jul 5.7 08:52:11 10° E 08:54:57 14° ENE 08:57:44 10° NNE visible
09 Jul 3.9 09:51:53 10° SE 09:57:14 49° ENE 10:02:37 10° N visible
10 Jul 4.6 09:33:44 10° SE 09:38:41 34° ENE 09:43:40 10° N visible
11 Jul 5.2 09:15:51 10° ESE 09:20:11 24° ENE 09:24:33 10° NNE visible
12 Jul 5.6 08:58:22 10° E 09:01:45 17° ENE 09:05:09 10° NNE visible
13 Jul 5.9 08:41:46 10° ENE 08:43:22 11° ENE 08:44:58 10° NE visible
14 Jul 3.6 09:58:39 10° SSE 10:04:07 58° ENE 10:09:37 10° N visible
15 Jul 4.3 09:40:23 10° SE 09:45:33 40° ENE 09:50:44 10° N visible
16 Jul 5.0 09:22:22 10° ESE 09:27:01 28° ENE 09:31:41 10° N visible
